When you browse on this site, cookies collect data to enhance your experience and personalize the content and advertising you see.
Visit our Privacy Policy to learn more. By continuing to use the site, you agree to this use of cookies and data.
  • In United Kingdom
  • List of Countries
  • For 7 days
  • Water Temperature
  • Weather Map
  • Weather Widgets
  • user-avatar
    Login

    Hourly Weather Dolhasca

    Today, 29 January, Wednesday

    Time Temperature Precipitation Wind Pressure Humidity
    00:00 +3°C° 0 mm 2 mps 724 mmHg 77%
    01:00 +3°C° 0 mm 2 mps 724 mmHg 78%
    02:00 +3°C° 0 mm 2 mps 723 mmHg 77%
    03:00 +2°C° 0 mm 3 mps 722 mmHg 78%
    04:00 +2°C° 0 mm 3 mps 722 mmHg 79%
    05:00 +2°C° 0 mm 3 mps 721 mmHg 80%
    06:00 +3°C° 0 mm 3 mps 721 mmHg 80%
    07:00 +3°C° 0 mm 3 mps 721 mmHg 80%
    08:00 +3°C° 0 mm 3 mps 721 mmHg 82%
    09:00 +4°C° 0 mm 4 mps 721 mmHg 76%
    10:00 +3°C° 0 mm 5 mps 722 mmHg 71%
    11:00 +4°C° 0 mm 6 mps 722 mmHg 66%
    12:00 +4°C° 0 mm 6 mps 723 mmHg 61%
    13:00 +4°C° 0 mm 6 mps 724 mmHg 56%
    14:00 +4°C° 0 mm 6 mps 724 mmHg 51%
    15:00 +3°C° 0.1 mm 5 mps 725 mmHg 55%
    16:00 +3°C° 0.1 mm 4 mps 725 mmHg 59%
    17:00 +1°C° 0.1 mm 4 mps 725 mmHg 63%
    18:00 +1°C° 0 mm 3 mps 726 mmHg 63%
    19:00 +1°C° 0 mm 3 mps 726 mmHg 63%
    20:00 0°C° 0 mm 3 mps 726 mmHg 63%
    21:00 0°C° 0 mm 3 mps 726 mmHg 62%
    22:00 0°C° 0 mm 3 mps 727 mmHg 62%
    23:00 0°C° 0 mm 3 mps 727 mmHg 61%

    Tomorrow, 30 January, Thursday

    Time Temperature Precipitation Wind Pressure Humidity
    00:00 0°C° 0 mm 3 mps 727 mmHg 63%
    01:00 -1°C° 0 mm 3 mps 727 mmHg 64%
    02:00 -1°C° 0 mm 2 mps 727 mmHg 66%
    03:00 -1°C° 0 mm 2 mps 728 mmHg 67%
    04:00 -1°C° 0 mm 3 mps 728 mmHg 67%
    05:00 -1°C° 0 mm 3 mps 728 mmHg 68%
    06:00 -1°C° 0 mm 3 mps 728 mmHg 66%
    07:00 -1°C° 0 mm 3 mps 729 mmHg 65%
    08:00 0°C° 0 mm 3 mps 729 mmHg 64%
    09:00 0°C° 0 mm 4 mps 729 mmHg 57%
    10:00 +3°C° 0 mm 4 mps 729 mmHg 50%
    11:00 +3°C° 0 mm 5 mps 729 mmHg 43%
    12:00 +5°C° 0 mm 5 mps 730 mmHg 42%
    13:00 +5°C° 0 mm 5 mps 730 mmHg 41%
    14:00 +5°C° 0 mm 5 mps 730 mmHg 39%
    15:00 +4°C° 0 mm 4 mps 730 mmHg 44%
    16:00 +4°C° 0 mm 3 mps 730 mmHg 49%
    17:00 +3°C° 0 mm 3 mps 730 mmHg 54%
    18:00 +2°C° 0 mm 3 mps 730 mmHg 57%
    19:00 +1°C° 0 mm 3 mps 731 mmHg 59%
    20:00 0°C° 0 mm 3 mps 731 mmHg 62%
    21:00 0°C° 0 mm 3 mps 731 mmHg 63%
    22:00 +1°C° 0 mm 2 mps 731 mmHg 64%
    23:00 -1°C° 0 mm 2 mps 730 mmHg 65%

    Day after tomorrow, 31 January, Friday

    Time Temperature Precipitation Wind Pressure Humidity
    00:00 -1°C° 0 mm 2 mps 730 mmHg 64%
    01:00 -1°C° 0 mm 2 mps 730 mmHg 64%
    02:00 -1°C° 0 mm 2 mps 730 mmHg 63%
    03:00 +1°C° 0 mm 2 mps 730 mmHg 64%
    04:00 +1°C° 0 mm 2 mps 730 mmHg 64%
    05:00 +1°C° 0 mm 2 mps 729 mmHg 65%
    06:00 +1°C° 0 mm 2 mps 729 mmHg 65%
    07:00 +1°C° 0 mm 2 mps 729 mmHg 65%
    08:00 +1°C° 0 mm 2 mps 728 mmHg 65%
    09:00 +1°C° 0 mm 3 mps 728 mmHg 62%
    10:00 +3°C° 0 mm 3 mps 727 mmHg 59%
    11:00 +4°C° 0 mm 3 mps 727 mmHg 56%
    12:00 +4°C° 0.4 mm 3 mps 726 mmHg 60%
    13:00 +4°C° 0.4 mm 3 mps 725 mmHg 65%
    14:00 +4°C° 0.4 mm 3 mps 724 mmHg 69%
    15:00 +4°C° 0.1 mm 3 mps 724 mmHg 68%
    16:00 +4°C° 0.1 mm 3 mps 723 mmHg 67%
    17:00 +5°C° 0.1 mm 3 mps 723 mmHg 66%
    18:00 +5°C° 0.2 mm 3 mps 723 mmHg 67%
    19:00 +4°C° 0.2 mm 4 mps 724 mmHg 68%
    20:00 +3°C° 0.2 mm 5 mps 724 mmHg 70%
    21:00 +3°C° 0.1 mm 5 mps 725 mmHg 73%
    22:00 +3°C° 0.1 mm 6 mps 725 mmHg 76%
    23:00 +3°C° 0.1 mm 6 mps 726 mmHg 80%

    1 February, Saturday

    Time Temperature Precipitation Wind Pressure Humidity
    00:00 +3°C° 0.2 mm 6 mps 727 mmHg 81%
    01:00 +3°C° 0.2 mm 5 mps 727 mmHg 82%
    02:00 +2°C° 0.2 mm 5 mps 728 mmHg 83%
    03:00 +2°C° 0 mm 5 mps 729 mmHg 84%
    04:00 +3°C° 0 mm 4 mps 729 mmHg 85%
    05:00 +3°C° 0 mm 4 mps 729 mmHg 85%
    06:00 +3°C° 0 mm 3 mps 730 mmHg 85%
    07:00 +3°C° 0 mm 3 mps 730 mmHg 85%
    08:00 +4°C° 0 mm 2 mps 731 mmHg 85%
    09:00 +4°C° 0 mm 2 mps 731 mmHg 81%
    10:00 +6°C° 0 mm 1 mps 731 mmHg 77%
    11:00 +7°C° 0 mm 1 mps 732 mmHg 74%
    12:00 +8°C° 0 mm 1 mps 732 mmHg 68%
    13:00 +9°C° 0 mm 1 mps 732 mmHg 62%
    14:00 +10°C° 0 mm 1 mps 732 mmHg 56%
    15:00 +8°C° 0 mm 2 mps 731 mmHg 59%
    16:00 +8°C° 0 mm 2 mps 731 mmHg 62%
    17:00 +7°C° 0 mm 2 mps 731 mmHg 65%
    18:00 +6°C° 0 mm 2 mps 731 mmHg 68%
    19:00 +6°C° 0 mm 2 mps 731 mmHg 72%
    20:00 +5°C° 0 mm 2 mps 731 mmHg 75%
    21:00 +5°C° 0 mm 2 mps 731 mmHg 76%
    22:00 +4°C° 0 mm 2 mps 730 mmHg 78%
    23:00 +4°C° 0 mm 2 mps 730 mmHg 80%

    2 February, Sunday

    Time Temperature Precipitation Wind Pressure Humidity
    00:00 +4°C° 0 mm 2 mps 730 mmHg 80%
    01:00 +4°C° 0 mm 2 mps 729 mmHg 80%
    02:00 +4°C° 0 mm 2 mps 729 mmHg 81%
    03:00 +4°C° 0 mm 2 mps 729 mmHg 80%
    04:00 +5°C° 0 mm 2 mps 728 mmHg 79%
    05:00 +5°C° 0 mm 2 mps 728 mmHg 78%
    06:00 +5°C° 0.1 mm 2 mps 728 mmHg 79%
    07:00 +5°C° 0.1 mm 2 mps 728 mmHg 80%
    08:00 +6°C° 0.1 mm 2 mps 728 mmHg 81%
    09:00 +7°C° 0.1 mm 2 mps 728 mmHg 79%
    10:00 +7°C° 0.1 mm 2 mps 729 mmHg 77%
    11:00 +8°C° 0.1 mm 2 mps 729 mmHg 75%
    12:00 +7°C° 0.5 mm 3 mps 729 mmHg 77%
    13:00 +6°C° 0.5 mm 4 mps 729 mmHg 79%
    14:00 +4°C° 0.5 mm 6 mps 730 mmHg 82%
    15:00 +5°C° 0.2 mm 5 mps 730 mmHg 78%
    16:00 +5°C° 0.2 mm 5 mps 731 mmHg 74%
    17:00 +4°C° 0.2 mm 4 mps 732 mmHg 70%
    18:00 +4°C° 0 mm 3 mps 732 mmHg 75%
    19:00 +3°C° 0 mm 3 mps 733 mmHg 80%
    20:00 +3°C° 0 mm 2 mps 733 mmHg 85%
    21:00 +3°C° 0 mm 2 mps 734 mmHg 84%
    22:00 +2°C° 0 mm 2 mps 734 mmHg 84%
    23:00 +2°C° 0 mm 2 mps 734 mmHg 84%

    3 February, Monday

    Time Temperature Precipitation Wind Pressure Humidity
    00:00 +2°C° 0 mm 2 mps 734 mmHg 81%
    01:00 +2°C° 0 mm 2 mps 734 mmHg 79%
    02:00 +2°C° 0 mm 2 mps 734 mmHg 77%
    03:00 +2°C° 0 mm 2 mps 734 mmHg 76%
    04:00 +3°C° 0 mm 1 mps 733 mmHg 76%
    05:00 +3°C° 0 mm 1 mps 733 mmHg 75%
    06:00 +3°C° 0 mm 1 mps 733 mmHg 75%
    07:00 +3°C° 0 mm 1 mps 733 mmHg 74%
    08:00 +2°C° 0 mm 2 mps 733 mmHg 74%
    09:00 +4°C° 0 mm 2 mps 733 mmHg 67%
    10:00 +5°C° 0 mm 2 mps 733 mmHg 61%
    11:00 +7°C° 0 mm 2 mps 733 mmHg 54%
    12:00 +8°C° 0 mm 3 mps 732 mmHg 54%
    13:00 +8°C° 0 mm 4 mps 732 mmHg 54%
    14:00 +9°C° 0 mm 5 mps 732 mmHg 54%
    15:00 +8°C° 0 mm 4 mps 731 mmHg 58%
    16:00 +7°C° 0 mm 4 mps 731 mmHg 63%
    17:00 +7°C° 0 mm 3 mps 731 mmHg 67%
    18:00 +6°C° 0 mm 4 mps 732 mmHg 70%
    19:00 +5°C° 0 mm 4 mps 732 mmHg 74%
    20:00 +4°C° 0 mm 4 mps 732 mmHg 77%
    21:00 +4°C° 0 mm 4 mps 733 mmHg 78%
    22:00 +3°C° 0 mm 4 mps 734 mmHg 80%
    23:00 +3°C° 0 mm 4 mps 734 mmHg 81%
    Show more